Location: Geyikbay?r?
(36.8756°N, 30.4583°E)
Time: 01:24:01
(UTC+00:00)

USA 81 - Pass Details

Date: 05 August 2024
Orbit: 784 x 786 km, 85.0° (Epoch: 12 September)

Event Time Altitude Azimuth Distance (km) Brightness Sun altitude
Rises 19:36:37 0° 357° (N) 3,282 8.1 -26.2°
Reaches altitude 10° 19:39:00 10° 359° (N) 2,349 7.2 -26.5°
Enters shadow 19:44:00 77° 45° (NE) 809 4.0 -27.1°
